OPS 4682 DEB, 38403

Orbit data source: Space-Track

OPS 4682 DEB, 38403 is space debris in LEO originally from a launch on Sat, 03 Apr 1965 UTC launched from the Air Force Western Test Range (AFWTR). Debris objects in space refer to the collection of defunct objects orbiting the Earth. Examples of debris include non-operational satellites, rocket bodies, and fragments generated from explosions, collisions, or faulty payload assembly.

Loading next visibility...
Identifier
38403, 1965-027DG
Orbit
LEO
Country
Flag of USUS
Related business
Manufacturer
Unknown
Mission
Spacecraft
Bus & Motor
Unknown
Mass
Unknown
Launch date (UTC)
1965-04-03 (61 years ago)
Launch vehicle
Unknown
Launch site
Air Force Western Test Range (AFWTR)
Object type
Payload
Rocket body
Debris
Shape & HBR
Unknown shape, 0.1 m
Radar Cross Section
Medium (>0.1 m² and <1 m²)

Expand to show TLE details & history
Last TLE update: 8 hours ago

TLE from 8 hours ago
0 OPS 4682 DEB
1 38403U 65027DG  26175.25443944  .00000022  00000-0  51054-4 0  9997
2 38403  90.2448  11.0224 0026953 174.1293 186.0147 12.94361102662841
Epoch: 2026-06-24T06:06Z
TLE epoch observation values (Epoch: 2026-06-24T06:06:23.567Z)
Latitude
-0.00002°
Longitude
7.00992°
Altitude
1,307.679 km
Speed
7.193 km/s
True Right ascension
00h 44m 05s
True Declination
0° 00' 00"
Sunlit
Object was in daylight at epoch
Visualization orbit readout
Latitude
Unknown
Longitude
Unknown
Altitude
Unknown
Speed
Unknown
Apparent Right ascension
Unknown
Apparent Declination
Unknown
Sunlit
N/A
Visualization observer readout
Local Sidereal Time
01:44:50
Azimuth
Unknown
Elevation
Unknown
Doppler factor
Unknown
Orbital elements
Apogee altitude
1,302.04 km
Perigee altitude
1,260.751 km
Semi-major axis
7,659.533 km
Eccentricity
0.0027
Inclination
90.2448°
RAAN
11.0224°
Arg. of periapsis
174.1293°
True anomaly
185.98244°
Mean anomaly
186.0147°
Eccentric anomaly
185.99856°
Mean motion
3.23772 °/min
Orbital period
111.19 mins
BSTAR
0.000051054
Loading maneuver chart data...
Computing Atmospheric mass density...
Loading historical data...
Loading historical data...
Loading historical data...
Loading historical data...
Loading historical data...
Loading historical data...
Loading historical data...

Documentation

Showing up to 5 results
|